GSAT0224 (GALILEO 28)

Last updated on Sat Apr 11 2026 00:02:39 GMT+0000 (Coordinated Universal Time)

1 49810U 21116B 26098.88475477 -.00000080 00000+0 00000+0 0 9995 2 49810 57.1838 343.5478 0001111 320.0769 219.9230 1.70476074 27024
UTC large
Height (km)
Speed (km/s)
/
Latitude / Longitude
Inclination (degrees)
Orbital Period (minutes)
Azimuth
Elevation
Range (km)
Doppler Factor

Next 0 passes for location: London (51.5072 / 0.1276)

Sorry there are no passes over London.
GSAT0224 (GALILEO 28)